Radiation Dose at Monitoring Post of Fukushima Daini Nuclear Power Station
Date,Time,MP-1(microSv/h),MP-2(microSv/h),MP-3(microSv/h),MP-4(microSv/h),MP-5(microSv/h),MP-6(microSv/h),MP-7(microSv/h),Wind Direction,Wind Velocity(m/s),Rain
2015/05/25,00:00,0.555,0.330,0.592,0.548,0.482,0.253,0.228,south-southwest,1.8,No
2015/05/25,00:10,0.554,0.332,0.593,0.552,0.478,0.255,0.229,south-southwest,1.6,No
2015/05/25,00:20,0.557,0.331,0.592,0.549,0.482,0.255,0.229,south-southwest,1.4,No
2015/05/25,00:30,0.555,0.328,0.594,0.550,0.476,0.254,0.228,-,CALM,No
2015/05/25,00:40,0.555,0.334,0.589,0.553,0.482,0.254,0.228,north,0.5,No
2015/05/25,00:50,0.556,0.330,0.594,0.550,0.479,0.254,0.228,north,2.4,No
2015/05/25,01:00,0.554,0.332,0.588,0.552,0.482,0.255,0.229,north,3.7,No
2015/05/25,01:10,0.558,0.331,0.596,0.548,0.478,0.254,0.229,north,4.3,No
2015/05/25,01:20,0.553,0.332,0.589,0.551,0.482,0.254,0.228,north-northwest,4.4,No
2015/05/25,01:30,0.558,0.331,0.595,0.547,0.480,0.255,0.230,north,6.8,No
2015/05/25,01:40,0.553,0.331,0.589,0.552,0.480,0.254,0.229,north-northeast,6.6,No
2015/05/25,01:50,0.557,0.331,0.593,0.549,0.480,0.254,0.228,north-northeast,5.9,No
2015/05/25,02:00,0.551,0.331,0.590,0.549,0.482,0.254,0.228,north,5.4,No
2015/05/25,02:10,0.558,0.332,0.593,0.550,0.481,0.255,0.228,north-northwest,6.2,No
2015/05/25,02:20,0.552,0.329,0.590,0.550,0.479,0.254,0.228,north-northwest,8.5,No
2015/05/25,02:30,0.557,0.332,0.592,0.553,0.483,0.254,0.230,north-northwest,9.5,No
2015/05/25,02:40,0.553,0.330,0.592,0.547,0.479,0.254,0.229,north-northwest,9.2,No
2015/05/25,02:50,0.556,0.330,0.592,0.551,0.483,0.253,0.228,north-northwest,8.9,No
2015/05/25,03:00,0.553,0.331,0.591,0.548,0.478,0.253,0.228,north-northwest,10.2,No
2015/05/25,03:10,0.555,0.332,0.591,0.551,0.482,0.253,0.227,north-northwest,10.2,No
2015/05/25,03:20,0.551,0.330,0.593,0.549,0.476,0.254,0.228,north-northwest,10.7,No
2015/05/25,03:30,0.557,0.329,0.591,0.551,0.483,0.253,0.228,north-northwest,10.4,No
2015/05/25,03:40,0.551,0.331,0.591,0.549,0.478,0.253,0.227,north-northwest,10.4,No
2015/05/25,03:50,0.557,0.329,0.591,0.548,0.482,0.253,0.226,north-northwest,10.5,No
2015/05/25,04:00,0.552,0.330,0.590,0.548,0.478,0.252,0.228,north-northwest,10.8,No
2015/05/25,04:10,0.558,0.327,0.592,0.548,0.481,0.252,0.227,north-northwest,9.5,No
2015/05/25,04:20,0.552,0.330,0.589,0.549,0.477,0.252,0.227,north-northwest,10.1,No
2015/05/25,04:30,0.556,0.329,0.591,0.548,0.482,0.253,0.228,north-northwest,9.9,No
2015/05/25,04:40,0.553,0.331,0.590,0.548,0.476,0.253,0.228,north-northwest,9.2,No
2015/05/25,04:50,0.555,0.329,0.590,0.550,0.480,0.253,0.227,north-northwest,9.2,No
2015/05/25,05:00,0.553,0.330,0.589,0.549,0.477,0.252,0.227,north-northwest,8.8,No
2015/05/25,05:10,0.554,0.329,0.593,0.546,0.482,0.253,0.227,north-northwest,8.7,No
2015/05/25,05:20,0.553,0.331,0.589,0.547,0.475,0.254,0.228,north-northwest,7.8,No
2015/05/25,05:30,0.555,0.330,0.591,0.548,0.481,0.252,0.226,north-northwest,7.0,No
2015/05/25,05:40,0.552,0.330,0.588,0.548,0.475,0.254,0.227,north-northwest,7.4,No
2015/05/25,05:50,0.552,0.329,0.590,0.548,0.480,0.252,0.225,north,7.8,No
2015/05/25,06:00,0.556,0.330,0.588,0.547,0.475,0.252,0.229,north,7.2,No
2015/05/25,06:10,0.550,0.331,0.593,0.548,0.480,0.253,0.227,north,6.7,No
2015/05/25,06:20,0.557,0.327,0.588,0.545,0.479,0.252,0.225,north,4.7,No
2015/05/25,06:30,0.550,0.331,0.593,0.550,0.477,0.252,0.227,north,6.4,No
2015/05/25,06:40,0.553,0.330,0.586,0.542,0.480,0.254,0.225,north,6.2,No
2015/05/25,06:50,0.552,0.326,0.588,0.549,0.476,0.251,0.224,north,7.3,No
2015/05/25,07:00,0.552,0.330,0.592,0.545,0.481,0.253,0.225,north,6.4,No
2015/05/25,07:10,0.556,0.330,0.585,0.548,0.477,0.252,0.226,north-northeast,7.5,No
2015/05/25,07:20,0.551,0.327,0.580,0.550,0.479,0.252,0.225,north,7.4,No
2015/05/25,07:30,0.556,0.331,0.590,0.542,0.480,0.252,0.225,north-northeast,8.2,No
2015/05/25,07:40,0.551,0.328,0.589,0.543,0.474,0.252,0.226,north,7.8,No
2015/05/25,07:50,0.554,0.327,0.584,0.549,0.482,0.252,0.227,north,7.5,No
2015/05/25,08:00,0.554,0.330,0.583,0.545,0.479,0.254,0.226,north,8.8,No
2015/05/25,08:10,0.551,0.331,0.592,0.540,0.473,0.252,0.224,north,8.3,No
2015/05/25,08:20,0.554,0.327,0.592,0.543,0.481,0.253,0.224,north-northeast,8.6,No
2015/05/25,08:30,0.552,0.330,0.589,0.549,0.477,0.253,0.227,north-northeast,9.9,No
2015/05/25,08:40,0.551,0.330,0.596,0.546,0.474,0.251,0.226,north-northeast,10.5,No
2015/05/25,08:50,0.559,0.328,0.590,0.544,0.482,0.253,0.224,north-northeast,10.9,No
2015/05/25,09:00,0.550,0.330,0.594,0.541,0.480,0.252,0.227,north-northeast,11.0,No
2015/05/25,09:10,0.555,0.330,0.595,0.545,0.474,0.253,0.226,north-northeast,11.5,No
2015/05/25,09:20,0.554,0.329,0.590,0.550,0.481,0.252,0.226,north-northeast,11.5,No
2015/05/25,09:30,0.551,0.331,0.596,0.548,0.478,0.253,0.226,north-northeast,10.7,No
2015/05/25,09:40,0.558,0.329,0.588,0.544,0.476,0.253,0.227,north,14.0,No
2015/05/25,09:50,0.552,0.328,0.591,0.541,0.483,0.251,0.227,north,10.9,No
2015/05/25,10:00,0.554,0.331,0.594,0.541,0.478,0.253,0.226,north,10.4,No
2015/05/25,10:10,0.555,0.328,0.585,0.542,0.476,0.253,0.228,north-northeast,11.6,No
2015/05/25,10:20,0.551,0.330,0.588,0.552,0.481,0.251,0.227,north-northeast,9.4,No
2015/05/25,10:30,0.558,0.332,0.593,0.550,0.477,0.253,0.226,north-northeast,10.9,No
2015/05/25,10:40,0.554,0.329,0.588,0.549,0.477,0.254,0.227,north-northeast,8.1,No
2015/05/25,10:50,0.552,0.331,0.586,0.545,0.483,0.251,0.228,north-northeast,8.2,No
2015/05/25,11:00,0.558,0.331,0.584,0.544,0.478,0.251,0.226,north-northeast,8.9,No
2015/05/25,11:10,0.551,0.327,0.592,0.544,0.475,0.254,0.227,north-northeast,9.1,No
2015/05/25,11:20,0.556,0.330,0.590,0.554,0.484,0.253,0.230,north-northeast,8.7,No
2015/05/25,11:30,0.556,0.331,0.586,0.551,0.480,0.252,0.227,north-northeast,9.4,No
2015/05/25,11:40,0.552,0.329,0.584,0.547,0.474,0.252,0.227,north-northeast,7.3,No
2015/05/25,11:50,0.558,0.333,0.590,0.545,0.480,0.254,0.228,north-northeast,8.5,No
2015/05/25,12:00,0.554,0.329,0.596,0.550,0.481,0.253,0.228,north-northeast,8.3,No
2015/05/25,12:10,0.554,0.329,0.591,0.549,0.477,0.252,0.227,north-northeast,8.7,No
2015/05/25,12:20,0.559,0.332,0.589,0.549,0.473,0.253,0.230,north-northeast,8.5,No
2015/05/25,12:30,0.553,0.329,0.586,0.547,0.480,0.253,0.228,north-northeast,8.8,No
2015/05/25,12:40,0.560,0.330,0.584,0.543,0.481,0.254,0.227,north-northeast,8.4,No
2015/05/25,12:50,0.554,0.331,0.593,0.553,0.475,0.252,0.227,north,5.2,No
2015/05/25,13:00,0.556,0.330,0.590,0.551,0.474,0.253,0.230,north,5.7,No
2015/05/25,13:10,0.556,0.331,0.590,0.546,0.481,0.254,0.228,north,5.6,No
2015/05/25,13:20,0.555,0.330,0.587,0.545,0.482,0.254,0.226,northeast,5.0,No
2015/05/25,13:30,0.558,0.329,0.585,0.554,0.475,0.252,0.228,northeast,4.8,No
2015/05/25,13:40,0.552,0.332,0.599,0.552,0.476,0.252,0.228,northeast,1.9,No
2015/05/25,13:50,0.559,0.331,0.594,0.547,0.483,0.254,0.227,north-northeast,1.5,No
2015/05/25,14:00,0.555,0.331,0.589,0.551,0.479,0.253,0.229,north,1.8,No
2015/05/25,14:10,0.555,0.332,0.593,0.554,0.475,0.252,0.228,-,CALM,No
2015/05/25,14:20,0.558,0.329,0.596,0.547,0.484,0.254,0.227,north-northeast,1.9,No
2015/05/25,14:30,0.553,0.332,0.591,0.551,0.479,0.253,0.229,north,2.5,No
2015/05/25,14:40,0.559,0.330,0.594,0.553,0.480,0.253,0.227,north-northeast,1.8,No
2015/05/25,14:50,0.553,0.332,0.595,0.548,0.481,0.252,0.228,north-northwest,1.0,No
2015/05/25,15:00,0.557,0.333,0.588,0.555,0.478,0.251,0.228,north,1.9,No
2015/05/25,15:10,0.555,0.331,0.597,0.550,0.485,0.254,0.227,north,2.2,No
2015/05/25,15:20,0.556,0.331,0.590,0.550,0.480,0.252,0.230,north,2.5,No
2015/05/25,15:30,0.557,0.329,0.591,0.553,0.480,0.253,0.228,north,2.9,Yes
2015/05/25,15:40,0.554,0.332,0.596,0.547,0.483,0.253,0.228,north-northeast,3.2,Yes
2015/05/25,15:50,0.556,0.331,0.590,0.552,0.477,0.254,0.228,north,3.0,No
2015/05/25,16:00,0.554,0.332,0.597,0.548,0.483,0.255,0.229,north,2.6,No
2015/05/25,16:10,0.558,0.330,0.591,0.553,0.477,0.253,0.228,north-northeast,3.4,Yes
2015/05/25,16:20,0.554,0.332,0.594,0.550,0.483,0.256,0.229,north-northeast,1.6,No
2015/05/25,16:30,0.560,0.331,0.593,0.552,0.481,0.254,0.228,north-northeast,2.2,No
2015/05/25,16:40,0.554,0.331,0.590,0.553,0.480,0.254,0.230,north,3.1,No
2015/05/25,16:50,0.558,0.330,0.596,0.549,0.480,0.253,0.228,north-northeast,2.1,No
2015/05/25,17:00,0.552,0.331,0.590,0.553,0.478,0.253,0.228,north,2.5,No
2015/05/25,17:10,0.559,0.330,0.596,0.548,0.483,0.252,0.228,north,1.5,No
2015/05/25,17:20,0.553,0.330,0.593,0.555,0.477,0.252,0.229,north-northeast,1.4,No
2015/05/25,17:30,0.558,0.331,0.595,0.548,0.483,0.254,0.228,north,1.5,No
2015/05/25,17:40,0.552,0.330,0.595,0.552,0.476,0.253,0.228,north-northeast,0.7,No
2015/05/25,17:50,0.556,0.330,0.592,0.548,0.482,0.254,0.228,northeast,0.9,No
2015/05/25,18:00,0.556,0.330,0.596,0.552,0.479,0.253,0.229,north-northeast,1.3,No
2015/05/25,18:10,0.555,0.330,0.590,0.549,0.481,0.254,0.227,north-northeast,1.3,Yes
2015/05/25,18:20,0.555,0.330,0.596,0.553,0.480,0.254,0.228,north,1.5,Yes
2015/05/25,18:30,0.555,0.330,0.591,0.549,0.480,0.254,0.227,north-northeast,2.2,No
2015/05/25,18:40,0.557,0.330,0.596,0.552,0.481,0.254,0.230,north,2.6,No
2015/05/25,18:50,0.555,0.329,0.590,0.549,0.480,0.254,0.228,north,2.5,No
2015/05/25,19:00,0.555,0.329,0.599,0.550,0.481,0.254,0.228,north,2.5,No
2015/05/25,19:10,0.554,0.331,0.589,0.552,0.479,0.254,0.228,north,2.7,No
2015/05/25,19:20,0.556,0.330,0.594,0.551,0.480,0.253,0.228,north,3.0,No
2015/05/25,19:30,0.557,0.330,0.590,0.551,0.478,0.253,0.227,north,3.1,No
2015/05/25,19:40,0.556,0.330,0.595,0.550,0.481,0.254,0.228,north,3.7,No
2015/05/25,19:50,0.555,0.331,0.593,0.553,0.477,0.253,0.228,north,3.3,No
2015/05/25,20:00,0.556,0.330,0.595,0.549,0.481,0.254,0.227,north,5.0,No
2015/05/25,20:10,0.553,0.330,0.592,0.551,0.478,0.252,0.227,north,4.4,No
2015/05/25,20:20,0.556,0.331,0.592,0.550,0.481,0.255,0.228,north,4.1,No
2015/05/25,20:30,0.553,0.329,0.592,0.552,0.479,0.253,0.229,north,4.0,Yes
2015/05/25,20:40,0.558,0.331,0.593,0.550,0.480,0.254,0.227,north,3.6,No
2015/05/25,20:50,0.554,0.330,0.594,0.551,0.479,0.253,0.229,north,3.5,No
2015/05/25,21:00,0.557,0.331,0.594,0.551,0.480,0.254,0.227,north,3.6,No
2015/05/25,21:10,0.554,0.329,0.593,0.550,0.482,0.252,0.229,north,4.0,No
2015/05/25,21:20,0.559,0.332,0.592,0.550,0.480,0.254,0.227,north,4.0,No
2015/05/25,21:30,0.552,0.331,0.596,0.552,0.480,0.253,0.230,north,3.9,Yes
2015/05/25,21:40,0.557,0.331,0.591,0.550,0.477,0.254,0.229,north,3.9,Yes
2015/05/25,21:50,0.551,0.330,0.592,0.551,0.481,0.253,0.228,north,2.3,Yes
2015/05/25,22:00,0.558,0.331,0.592,0.549,0.479,0.253,0.228,north,2.5,No
2015/05/25,22:10,0.551,0.329,0.594,0.551,0.479,0.253,0.228,north,3.5,No
2015/05/25,22:20,0.557,0.333,0.592,0.554,0.475,0.254,0.227,north,4.1,No
2015/05/25,22:30,0.553,0.329,0.594,0.551,0.482,0.254,0.228,north,4.3,No
2015/05/25,22:40,0.557,0.332,0.591,0.551,0.477,0.254,0.228,north,3.9,No
2015/05/25,22:50,0.552,0.330,0.594,0.552,0.483,0.252,0.228,north,3.6,No
2015/05/25,23:00,0.556,0.332,0.592,0.552,0.478,0.254,0.229,north,3.9,No
2015/05/25,23:10,0.552,0.330,0.593,0.548,0.481,0.253,0.228,north,4.2,No
2015/05/25,23:20,0.557,0.332,0.593,0.553,0.477,0.253,0.227,north,4.3,No
2015/05/25,23:30,0.554,0.329,0.594,0.549,0.483,0.253,0.229,north,5.0,No
2015/05/25,23:40,0.558,0.332,0.592,0.553,0.478,0.254,0.228,north,4.5,No
2015/05/25,23:50,0.554,0.330,0.595,0.550,0.483,0.252,0.228,north,3.9,No
